STARLINK-2752 (48692 NORAD) Tracking and Keplerian Element Data

This shows tracking and keplerian element data for the satellite.

Feedback or suggestion? Click here.




ElementValue
Catalog48692
NameSTARLINK-2752
Epoch Orbit369
Epoch Day214.91667824
Epoch Year2021
RAAN85.9884
Inclination53.047
Eccentricity0.0002575
Argument of Perigee24.8127
Mean Anonmoly62.6265
Mean Motion15.73257679
Decay Rate-0.00075939
L11 48692U 21044BG 21214.91667824 -.00075939 00000-0 -53998-3 0 9995
L22 48692 53.0470 85.9884 0002575 24.8127 62.6265 15.73257679 3692

Live tracking and technical data element details for STARLINK-2752 (NORAD 48692). STARLINK-2752 can be tracked NOW for your location showing map with azimuth and elevation plus other details from your city location.

Track the satellite on the map from your city or location and see movement details for azimuth, elevation, latitude, longitude, range, height, and movement on the map or in text.







IsCatalogInMostPopularTable: catalog: 48692, numindb: 15
Update: records affected: 1



GetName: 48692 STARLINK-2752

Hit Count: updated at: Tue, 03 Aug 2021 23:29:30 GMT